• En España
  • Lista de países
  • Para 7 días
  • Temperatura del agua
  • Mapa Satelital
  • El tiempo en el mapa
  • Informadores
  • user-avatar
    Iniciar sesión

    Tiempo cada hora Wiktoria

    Hoy, 21 Enero, Domingo

    Tiempo Temperatura Precipitaciones Viento Presión Humedad
    00:00 +28°C° 0 mm 4 mps 746 mmHg 55%
    01:00 +27°C° 0 mm 4 mps 745 mmHg 58%
    02:00 +27°C° 0 mm 4 mps 745 mmHg 57%
    03:00 +27°C° 0 mm 3 mps 745 mmHg 55%
    04:00 +26°C° 0 mm 4 mps 745 mmHg 58%
    05:00 +27°C° 0 mm 4 mps 745 mmHg 52%
    06:00 +27°C° 0 mm 4 mps 745 mmHg 47%
    07:00 +28°C° 0 mm 4 mps 745 mmHg 41%
    08:00 +32°C° 0 mm 4 mps 745 mmHg 33%
    09:00 +35°C° 0 mm 4 mps 745 mmHg 25%
    10:00 +38°C° 0 mm 4 mps 745 mmHg 17%
    11:00 +40°C° 0 mm 4 mps 744 mmHg 15%
    12:00 +42°C° 0 mm 4 mps 744 mmHg 13%
    13:00 +44°C° 0 mm 3 mps 743 mmHg 12%
    14:00 +43°C° 0 mm 4 mps 743 mmHg 14%
    15:00 +42°C° 0 mm 4 mps 742 mmHg 16%
    16:00 +38°C° 0 mm 3 mps 743 mmHg 20%
    17:00 +36°C° 0,6 mm 3 mps 743 mmHg 27%
    18:00 +34°C° 0,6 mm 3 mps 743 mmHg 35%
    19:00 +30°C° 0,6 mm 4 mps 743 mmHg 42%
    20:00 +30°C° 0,1 mm 3 mps 743 mmHg 43%
    21:00 +29°C° 0,1 mm 3 mps 743 mmHg 44%
    22:00 +29°C° 0 mm 2 mps 744 mmHg 46%
    23:00 +28°C° 0,2 mm 2 mps 743 mmHg 49%

    Mañana, 22 Enero, Lunes

    Tiempo Temperatura Precipitaciones Viento Presión Humedad
    00:00 +27°C° 0,2 mm 2 mps 743 mmHg 53%
    01:00 +26°C° 0,2 mm 1 mps 743 mmHg 57%
    02:00 +26°C° 0 mm 1 mps 743 mmHg 59%
    03:00 +25°C° 0 mm 1 mps 743 mmHg 60%
    04:00 +25°C° 0 mm 1 mps 743 mmHg 62%
    05:00 +25°C° 0 mm 1 mps 743 mmHg 61%
    06:00 +26°C° 0 mm 1 mps 744 mmHg 59%
    07:00 +26°C° 0 mm 1 mps 744 mmHg 57%
    08:00 +29°C° 0,1 mm 1 mps 744 mmHg 51%
    09:00 +31°C° 0,1 mm 1 mps 744 mmHg 45%
    10:00 +33°C° 0,1 mm 1 mps 744 mmHg 40%
    11:00 +35°C° 0 mm 2 mps 744 mmHg 35%
    12:00 +37°C° 0 mm 4 mps 744 mmHg 30%
    13:00 +40°C° 0 mm 5 mps 743 mmHg 25%
    14:00 +39°C° 0,1 mm 5 mps 743 mmHg 27%
    15:00 +37°C° 0,1 mm 5 mps 743 mmHg 29%
    16:00 +36°C° 0,1 mm 4 mps 743 mmHg 31%
    17:00 +35°C° 0 mm 4 mps 743 mmHg 34%
    18:00 +33°C° 0 mm 3 mps 743 mmHg 38%
    19:00 +31°C° 0 mm 3 mps 743 mmHg 41%
    20:00 +30°C° 0 mm 3 mps 744 mmHg 45%
    21:00 +28°C° 0 mm 3 mps 744 mmHg 50%
    22:00 +26°C° 0 mm 4 mps 744 mmHg 55%
    23:00 +25°C° 0 mm 4 mps 744 mmHg 58%

    Pasado mañana, 23 Enero, Martes

    Tiempo Temperatura Precipitaciones Viento Presión Humedad
    00:00 +23°C° 0 mm 4 mps 744 mmHg 62%
    01:00 +22°C° 0 mm 4 mps 744 mmHg 66%
    02:00 +21°C° 0 mm 3 mps 744 mmHg 69%
    03:00 +21°C° 0 mm 3 mps 744 mmHg 71%
    04:00 +20°C° 0 mm 3 mps 744 mmHg 74%
    05:00 +21°C° 0 mm 3 mps 745 mmHg 73%
    06:00 +21°C° 0 mm 3 mps 745 mmHg 71%
    07:00 +22°C° 0 mm 3 mps 745 mmHg 70%
    08:00 +25°C° 0 mm 3 mps 745 mmHg 61%
    09:00 +28°C° 0 mm 2 mps 745 mmHg 53%
    10:00 +31°C° 0 mm 2 mps 745 mmHg 44%
    11:00 +34°C° 0 mm 2 mps 745 mmHg 39%
    12:00 +35°C° 0 mm 2 mps 745 mmHg 34%
    13:00 +37°C° 0 mm 3 mps 744 mmHg 29%
    14:00 +38°C° 0 mm 3 mps 744 mmHg 28%
    15:00 +38°C° 0 mm 3 mps 743 mmHg 27%
    16:00 +38°C° 0 mm 3 mps 743 mmHg 25%
    17:00 +36°C° 0 mm 4 mps 743 mmHg 29%
    18:00 +34°C° 0 mm 5 mps 743 mmHg 32%
    19:00 +32°C° 0 mm 6 mps 743 mmHg 36%
    20:00 +30°C° 0 mm 6 mps 743 mmHg 40%
    21:00 +28°C° 0 mm 6 mps 744 mmHg 45%
    22:00 +26°C° 0 mm 5 mps 744 mmHg 49%
    23:00 +25°C° 0,1 mm 5 mps 744 mmHg 55%

    24 Enero, Miércoles

    Tiempo Temperatura Precipitaciones Viento Presión Humedad
    00:00 +23°C° 0,1 mm 4 mps 744 mmHg 61%
    01:00 +22°C° 0,1 mm 4 mps 743 mmHg 66%
    02:00 +22°C° 0,1 mm 3 mps 743 mmHg 68%
    03:00 +22°C° 0,1 mm 3 mps 743 mmHg 69%
    04:00 +21°C° 0,1 mm 2 mps 743 mmHg 71%
    05:00 +22°C° 0,6 mm 3 mps 743 mmHg 71%
    06:00 +22°C° 0,6 mm 3 mps 744 mmHg 71%
    07:00 +24°C° 0,6 mm 3 mps 744 mmHg 71%
    08:00 +27°C° 0,1 mm 3 mps 744 mmHg 61%
    09:00 +30°C° 0,1 mm 3 mps 744 mmHg 50%
    10:00 +34°C° 0,1 mm 3 mps 744 mmHg 40%
    11:00 +36°C° 0 mm 4 mps 744 mmHg 35%
    12:00 +38°C° 0 mm 4 mps 743 mmHg 30%
    13:00 +40°C° 0 mm 5 mps 743 mmHg 25%
    14:00 +40°C° 0 mm 5 mps 743 mmHg 26%
    15:00 +40°C° 0 mm 5 mps 742 mmHg 26%
    16:00 +39°C° 0 mm 6 mps 742 mmHg 26%
    17:00 +36°C° 0 mm 5 mps 742 mmHg 32%
    18:00 +34°C° 0 mm 4 mps 743 mmHg 39%
    19:00 +32°C° 0 mm 4 mps 743 mmHg 45%
    20:00 +29°C° 0,1 mm 4 mps 743 mmHg 52%
    21:00 +28°C° 0,1 mm 3 mps 744 mmHg 58%
    22:00 +26°C° 0,1 mm 3 mps 744 mmHg 64%
    23:00 +26°C° 0,5 mm 3 mps 744 mmHg 69%

    25 Enero, Jueves

    Tiempo Temperatura Precipitaciones Viento Presión Humedad
    00:00 +25°C° 0,5 mm 2 mps 744 mmHg 73%
    01:00 +24°C° 0,5 mm 2 mps 744 mmHg 77%
    02:00 +24°C° 0,2 mm 2 mps 744 mmHg 79%
    03:00 +24°C° 0,2 mm 2 mps 744 mmHg 80%
    04:00 +23°C° 0,2 mm 2 mps 743 mmHg 81%
    05:00 +24°C° 0 mm 3 mps 744 mmHg 78%
    06:00 +24°C° 0 mm 3 mps 744 mmHg 76%
    07:00 +25°C° 0 mm 3 mps 744 mmHg 73%
    08:00 +28°C° 0 mm 3 mps 744 mmHg 63%
    09:00 +30°C° 0 mm 3 mps 744 mmHg 54%
    10:00 +34°C° 0 mm 3 mps 744 mmHg 44%
    11:00 +36°C° 0 mm 3 mps 743 mmHg 40%
    12:00 +37°C° 0 mm 3 mps 743 mmHg 35%
    13:00 +39°C° 0 mm 3 mps 742 mmHg 31%
    14:00 +39°C° 0 mm 3 mps 742 mmHg 31%
    15:00 +39°C° 0 mm 3 mps 741 mmHg 30%
    16:00 +39°C° 0 mm 2 mps 741 mmHg 29%
    17:00 +38°C° 0 mm 2 mps 741 mmHg 31%
    18:00 +37°C° 0 mm 3 mps 741 mmHg 33%
    19:00 +36°C° 0 mm 3 mps 741 mmHg 35%
    20:00 +35°C° 0 mm 3 mps 741 mmHg 41%
    21:00 +33°C° 0 mm 4 mps 741 mmHg 46%
    22:00 +32°C° 0 mm 4 mps 742 mmHg 51%
    23:00 +30°C° 0 mm 4 mps 742 mmHg 52%

    26 Enero, Viernes

    Tiempo Temperatura Precipitaciones Viento Presión Humedad
    00:00 +30°C° 0 mm 4 mps 742 mmHg 54%
    01:00 +29°C° 0 mm 5 mps 742 mmHg 55%
    02:00 +29°C° 0 mm 5 mps 742 mmHg 54%
    03:00 +29°C° 0 mm 5 mps 742 mmHg 53%
    04:00 +29°C° 0 mm 5 mps 742 mmHg 52%
    05:00 +30°C° 0 mm 5 mps 742 mmHg 51%
    06:00 +30°C° 0 mm 6 mps 743 mmHg 50%
    07:00 +30°C° 0 mm 6 mps 743 mmHg 50%
    08:00 +33°C° 0 mm 6 mps 743 mmHg 45%
    09:00 +35°C° 0 mm 6 mps 743 mmHg 40%
    10:00 +38°C° 0 mm 6 mps 743 mmHg 35%
    11:00 +39°C° 0 mm 5 mps 743 mmHg 31%
    12:00 +41°C° 0 mm 5 mps 742 mmHg 27%
    13:00 +42°C° 0 mm 4 mps 742 mmHg 22%
    14:00 +42°C° 0 mm 4 mps 742 mmHg 22%
    15:00 +43°C° 0 mm 3 mps 742 mmHg 21%
    16:00 +42°C° 0 mm 2 mps 741 mmHg 20%
    17:00 +40°C° 0 mm 2 mps 742 mmHg 24%
    18:00 +39°C° 0 mm 2 mps 742 mmHg 27%
    19:00 +38°C° 0 mm 3 mps 742 mmHg 31%
    20:00 +35°C° 0 mm 3 mps 743 mmHg 39%
    21:00 +33°C° 0 mm 4 mps 743 mmHg 47%
    22:00 +30°C° 0 mm 4 mps 744 mmHg 56%
    23:00 +29°C° 0 mm 4 mps 744 mmHg 58%
    Mostrar más